Theta_e
281 281 281 280 281 280 281 280 281 281 281 280 280 280 281 282 282 282 283 282 283 282 282 282 282 282 282 282 282 282 283 285 286 286 286 286 287 286 286 285 285 285 287 287 288 290 289 289 289 290 292 292 293 294 295 295 295 296 296 297 296 296 295 295 294 293 291 286 285 283 280 280 282 281 280 280 281 281 279 281 279 280 279 280 281
280 279 280 279 280 281 281 281 282 280 280 280 279 280 281 281 282 282 282 282 282 282 282 283 283 283 283 282 282 282 282 282 283 284 285 286 287 286 286 285 285 285 287 287 288 288 288 288 287 288 289 290 291 292 294 294 294 294 295 294 295 294 293 292 293 292 288 289 286 283 281 280 280 281 280 280 281 280 279 280 279 280 279 280 281
279 279 280 281 281 280 280 280 280 280 279 279 279 280 281 281 281 282 281 281 281 283 284 284 283 284 284 284 284 282 283 284 284 285 285 285 285 285 286 285 285 285 286 288 288 288 288 288 288 288 288 289 289 290 292 292 293 293 293 293 292 292 292 291 289 292 290 291 290 287 282 282 282 280 280 280 280 279 279 279 280 280 280 280 280
279 279 279 280 279 279 279 280 280 280 279 279 280 281 282 282 281 281 281 281 282 283 286 284 284 285 284 284 284 284 283 286 285 285 285 285 285 285 285 285 285 285 286 286 288 288 287 287 288 289 289 289 289 288 290 291 292 292 292 292 292 288 289 288 289 290 291 290 283 286 286 285 284 281 281 281 280 279 279 280 281 280 280 279 279
278 278 278 278 278 278 279 280 280 279 279 279 280 280 281 281 281 280 281 282 282 284 283 284 284 283 283 283 283 282 281 280 279 281 282 284 285 283 284 285 285 285 285 285 286 286 287 287 288 289 290 289 288 288 288 289 290 291 291 291 289 287 286 287 287 288 289 289 289 285 279 282 285 287 283 278 278 278 278 279 281 280 279 279 279
278 277 277 278 278 278 279 279 279 278 278 279 280 280 280 280 280 280 281 281 282 283 283 284 284 282 281 280 280 279 280 280 280 280 281 282 282 284 284 284 284 285 285 285 285 286 286 286 287 288 289 290 289 288 288 288 288 289 290 289 288 288 286 286 285 287 288 289 288 288 288 286 286 282 282 280 277 279 280 279 279 280 280 280 279
277 278 278 277 278 278 278 278 278 278 279 279 279 280 280 280 280 281 281 282 283 283 283 284 283 282 281 281 281 280 280 281 282 282 282 282 282 282 283 283 284 284 285 285 285 285 286 286 287 288 289 289 289 287 287 287 288 288 289 288 288 288 286 285 286 286 286 287 288 288 287 284 283 283 282 280 275 277 278 278 278 279 279 279 279
277 277 277 278 277 277 276 277 277 278 278 279 279 279 280 279 280 282 282 283 282 282 282 283 283 282 282 282 282 281 281 281 282 282 283 284 283 283 283 283 283 284 284 284 285 285 286 285 285 286 287 288 289 288 288 287 287 288 288 288 288 287 286 285 286 286 285 285 287 287 287 286 281 285 285 285 281 277 275 277 278 279 279 279 280
277 276 276 276 276 276 277 276 277 278 278 278 279 279 279 279 281 282 282 282 282 282 283 282 283 283 282 281 280 280 281 281 281 282 282 282 282 282 282 283 283 283 283 284 284 284 285 286 285 285 285 286 288 288 288 287 285 285 286 286 286 286 286 286 286 286 286 285 285 285 286 286 283 281 282 282 282 280 278 277 276 277 278 279 279
276 276 276 276 276 276 276 277 277 277 278 279 279 279 279 280 281 281 281 281 281 281 281 281 281 282 280 279 279 280 280 280 279 279 279 280 281 282 283 282 283 283 283 283 284 284 284 285 285 285 285 285 286 284 285 285 284 285 285 286 286 285 286 286 285 286 286 286 286 286 285 285 284 281 280 280 282 284 283 277 278 275 275 278 280
275 275 275 275 275 275 276 276 276 277 278 278 279 279 279 280 280 280 280 281 281 281 281 280 280 280 279 279 278 277 277 277 276 277 278 278 279 280 281 282 282 282 283 283 283 283 283 284 285 285 285 285 285 284 283 283 283 283 284 285 285 285 285 285 286 286 286 286 286 286 285 285 285 283 282 280 281 280 280 278 278 278 278 279 279
274 274 274 274 274 275 275 275 276 277 277 278 278 278 279 280 279 279 279 280 281 281 281 280 280 279 279 278 277 277 276 276 275 275 276 277 278 279 280 281 281 282 282 282 282 282 283 283 284 284 284 284 283 284 284 283 283 282 282 282 284 285 285 286 285 285 285 286 286 286 286 286 286 285 285 283 281 282 283 280 278 278 278 278 278
273 273 273 273 273 273 274 275 275 276 276 276 277 278 278 278 278 278 278 279 280 281 280 280 280 279 279 277 276 277 276 276 275 275 275 275 277 277 278 278 279 279 279 279 281 282 283 282 282 282 283 284 284 283 283 283 283 282 282 282 282 283 285 285 285 285 285 285 286 286 286 286 285 286 286 285 283 283 282 282 279 280 278 278 276
273 273 273 273 273 273 274 274 275 275 275 275 276 276 277 277 278 277 277 279 280 280 280 279 279 279 278 277 276 276 275 276 275 275 275 275 276 276 277 277 276 276 276 276 277 279 281 282 282 282 283 283 283 284 284 283 283 282 282 282 282 283 283 284 285 285 286 286 286 286 286 286 286 286 286 285 283 282 281 282 280 278 278 277 275
272 272 273 273 273 273 274 274 274 274 274 274 275 275 275 275 275 275 276 278 278 277 277 277 277 278 279 278 276 276 276 275 274 276 275 274 275 275 275 276 275 275 275 275 276 276 277 280 281 282 282 282 283 283 283 283 283 282 282 282 282 282 282 283 285 285 285 285 285 285 286 286 286 287 286 285 282 283 283 283 281 276 276 276 275
272 272 272 273 273 273 274 274 273 273 273 274 274 274 274 274 274 274 275 275 276 276 276 276 277 278 279 277 276 277 278 277 276 276 275 274 274 274 274 274 275 274 274 274 274 275 275 277 280 281 282 282 282 282 283 282 282 281 281 281 282 283 282 282 283 284 285 285 285 286 286 285 286 286 286 286 283 282 283 282 282 281 279 275 275
272 272 272 272 273 274 274 273 273 273 273 273 273 274 273 273 274 274 274 274 274 275 276 277 277 278 278 277 277 276 276 275 275 274 274 274 274 274 274 274 274 274 274 274 274 274 274 276 278 280 281 281 281 282 282 282 282 282 282 281 281 282 282 281 282 283 284 285 285 285 285 286 286 286 286 286 285 283 282 282 283 282 282 280 276
272 272 272 272 273 273 273 273 273 273 273 273 273 274 274 274 274 273 273 272 273 274 275 276 276 277 277 277 277 277 276 276 275 274 274 273 273 273 273 272 272 273 273 274 274 274 274 276 277 279 281 282 282 282 282 282 282 282 282 282 282 282 282 282 282 282 283 284 285 285 285 285 286 286 285 286 285 284 283 282 281 281 283 282 281
271 271 272 272 273 272 273 273 273 273 274 273 273 274 274 273 273 273 272 273 273 275 275 275 275 275 277 277 277 276 276 275 275 274 272 271 271 271 271 271 271 272 273 273 273 273 274 276 277 278 280 281 281 281 282 282 282 282 282 281 282 281 281 281 282 282 283 284 284 284 285 285 286 285 286 285 285 285 284 284 282 282 282 283 283
271 271 272 272 272 272 272 272 272 273 273 273 273 273 273 273 273 272 273 273 273 274 273 273 273 273 274 274 274 275 275 275 274 272 271 270 270 270 270 271 271 272 272 273 273 274 275 275 277 278 279 280 281 281 281 281 281 281 281 281 281 281 281 281 281 281 282 283 284 284 285 285 285 285 285 285 285 285 285 285 283 282 282 282 283
271 271 272 272 272 272 272 273 273 273 273 274 273 272 272 272 271 272 271 272 272 272 272 272 272 272 272 271 272 273 273 273 271 271 270 270 270 271 270 271 271 272 273 273 274 275 276 276 277 278 279 280 281 281 281 281 281 281 281 281 281 281 281 281 282 281 281 283 284 284 284 284 285 285 285 285 285 285 285 285 285 284 282 283 283
271 271 272 272 272 272 272 273 273 273 273 272 272 272 271 271 271 271 271 271 271 271 271 271 271 271 270 271 271 271 271 271 270 270 269 269 269 270 270 271 271 272 273 274 274 276 277 278 278 278 279 280 281 281 281 280 280 280 280 281 281 281 280 281 281 280 280 282 283 283 284 284 285 284 285 285 285 284 284 284 284 284 283 283 283
271 271 272 272 272 272 272 272 272 272 272 272 272 271 270 270 270 270 269 270 271 270 270 270 269 270 270 269 269 269 269 270 269 269 268 269 269 270 271 271 272 273 274 275 275 277 277 277 278 279 280 281 282 282 281 281 281 281 280 281 282 281 280 280 279 280 280 281 282 283 283 284 284 284 284 285 285 284 284 283 283 284 283 284 283
272 272 272 272 271 272 272 272 272 272 272 271 271 270 270 269 269 269 268 269 269 269 268 269 269 269 269 268 268 269 269 268 267 267 267 268 270 271 272 272 273 274 274 276 277 277 276 277 277 278 279 281 282 282 282 282 282 281 281 281 281 281 281 280 280 280 280 280 281 282 282 283 283 283 283 284 284 284 284 283 283 283 284 284 284
271 271 271 271 271 271 271 272 272 272 271 271 270 270 269 268 268 268 268 268 268 268 268 268 268 267 267 267 267 267 266 266 266 266 267 268 270 270 270 270 271 272 273 273 275 276 276 276 277 277 277 278 279 281 282 282 282 281 281 280 280 281 281 281 281 280 281 280 280 281 281 282 282 282 282 282 283 283 284 284 283 283 283 283 284
271 271 271 271 271 272 272 272 272 271 271 270 269 269 268 268 267 267 267 267 267 267 268 267 267 266 267 266 266 266 266 265 266 266 267 267 268 269 269 270 271 272 273 273 273 274 276 276 276 275 276 276 277 278 279 281 281 281 280 279 280 280 280 280 280 280 280 279 279 280 280 280 281 281 281 281 282 282 283 283 283 283 283 283 282
271 271 271 271 271 271 272 272 272 271 270 269 269 268 267 267 267 267 267 266 267 267 267 266 266 266 265 265 265 265 265 265 266 266 266 267 267 268 269 270 271 271 272 273 274 273 273 273 273 274 274 274 275 277 278 278 278 279 279 279 279 279 280 280 280 280 280 280 280 279 279 279 279 280 280 280 281 281 282 282 282 282 282 282 282
271 271 271 271 271 271 271 271 271 270 270 269 268 267 267 266 266 266 266 266 266 266 266 266 266 265 265 264 265 265 265 265 266 266 266 267 267 268 269 270 270 269 270 270 270 271 271 272 272 273 273 274 274 275 277 278 278 278 278 278 279 280 280 280 280 280 281 281 280 279 279 279 279 279 279 279 280 280 281 281 282 282 281 281 281
270 270 271 271 270 271 271 270 270 269 268 268 267 267 267 266 266 266 266 266 266 266 265 265 265 264 264 264 265 265 265 265 266 266 267 267 268 269 269 269 268 268 269 269 269 270 270 270 271 272 273 273 274 275 276 278 279 279 278 279 279 280 280 280 280 281 281 281 280 279 279 279 280 281 282 282 282 282 280 280 280 281 281 280 280
270 270 270 271 271 270 270 270 269 268 267 267 266 266 266 265 265 265 265 265 265 265 264 264 264 264 264 264 265 265 265 265 265 265 266 266 267 268 268 268 267 267 268 268 268 269 269 269 270 271 272 273 274 275 277 279 281 281 280 281 281 281 281 281 280 280 280 281 280 280 280 282 282 283 283 284 284 284 284 282 280 280 280 280 280
270 270 270 270 270 270 270 269 268 267 267 266 266 265 265 265 265 264 265 265 265 264 264 263 263 263 264 264 265 265 265 265 265 265 265 266 267 267 267 267 266 266 266 267 268 268 269 269 269 269 270 271 273 274 277 279 281 283 282 282 282 282 282 281 281 281 280 280 279 279 279 281 282 283 283 284 284 284 284 284 284 283 282 281 280
270 269 269 270 270 270 269 269 268 267 266 265 265 264 264 264 264 264 264 265 264 263 263 263 263 264 264 264 264 265 265 265 265 265 265 266 266 266 266 266 266 266 266 267 267 267 268 269 269 270 270 271 272 276 278 279 281 282 283 281 281 281 281 280 281 281 281 280 279 279 279 280 281 282 283 283 284 284 284 284 284 284 284 283 283
270 270 270 270 269 269 269 268 267 266 266 265 265 264 263 263 263 264 264 264 263 263 263 263 263 264 264 264 264 264 264 264 265 265 266 266 266 265 265 265 265 266 266 266 267 268 268 269 270 270 271 272 273 276 279 280 281 282 283 282 280 280 280 280 280 281 281 281 281 280 279 280 281 283 283 283 282 283 284 284 284 284 284 284 284
270 270 270 269 269 269 269 268 267 266 266 266 265 264 263 264 264 264 264 263 263 263 263 263 263 264 264 264 264 264 264 264 265 265 265 265 265 264 265 265 266 266 266 266 267 268 268 269 270 271 271 273 273 276 279 280 281 282 282 282 280 280 280 280 280 280 280 281 281 280 280 279 281 282 283 282 282 282 282 282 283 282 282 283 284
269 269 269 269 268 268 268 267 266 266 265 265 264 264 264 263 263 263 263 263 263 263 263 263 263 263 264 264 264 264 264 264 264 265 264 264 264 264 265 265 265 266 266 266 267 267 268 269 270 271 272 273 274 278 280 281 282 283 283 283 281 281 281 281 281 281 281 281 281 281 281 280 280 280 281 282 281 281 281 281 281 281 282 282 282
268 268 268 267 267 267 266 265 266 265 265 265 264 264 263 263 263 263 263 263 263 263 263 263 263 263 263 264 264 264 264 264 264 264 264 264 264 264 264 265 265 266 266 267 267 268 268 269 270 271 272 273 275 279 281 282 283 284 284 282 282 282 281 281 281 281 281 281 281 281 281 281 280 280 282 284 283 282 281 281 280 281 281 281 281
268 267 267 267 267 266 265 265 264 264 265 263 263 263 263 262 262 263 263 263 263 262 262 263 263 263 263 264 264 263 263 263 263 263 263 263 264 264 264 265 265 265 266 266 267 268 269 269 270 271 272 274 276 280 282 283 284 285 284 283 282 282 281 281 281 282 282 282 282 282 282 281 281 280 282 284 285 283 281 280 280 280 280 280 280
266 266 267 266 265 265 265 264 263 264 264 263 263 263 262 262 262 262 262 262 262 262 262 262 262 263 263 263 263 263 263 263 263 263 263 264 264 264 265 265 265 265 265 266 267 268 269 270 271 272 274 275 277 280 282 283 284 285 284 281 281 281 281 281 281 282 282 282 283 283 283 282 281 281 283 285 285 283 280 280 280 279 279 279 279
265 265 264 264 264 264 264 263 263 263 263 263 262 262 262 261 261 261 262 261 261 262 262 262 262 263 263 263 263 263 263 263 263 263 263 263 264 264 265 266 266 266 266 267 268 268 269 271 272 274 277 278 279 280 282 283 284 284 283 279 280 280 280 280 280 280 281 281 282 283 284 283 283 283 284 285 285 284 280 279 279 279 278 278 279
265 264 264 264 263 263 262 262 263 261 263 262 262 262 261 261 261 261 261 261 261 262 263 263 263 263 263 263 263 263 263 263 263 263 264 264 264 265 265 265 266 266 266 267 268 270 271 273 275 276 278 279 279 280 282 283 283 283 283 279 280 280 280 280 280 281 281 281 282 282 283 285 285 285 285 285 285 285 282 282 281 279 279 278 280
262 263 263 263 262 263 262 263 262 262 261 262 262 261 260 261 261 261 260 261 262 263 263 263 263 263 263 263 263 263 263 263 264 264 264 264 265 265 265 266 266 267 268 269 269 270 271 274 277 275 275 276 277 277 279 282 282 282 282 280 274 275 277 279 280 281 281 281 281 282 282 284 285 285 285 285 286 286 285 282 282 280 280 281 282
263 262 262 262 262 262 262 262 262 261 261 262 261 260 260 260 260 260 260 262 262 262 262 262 262 262 262 262 263 263 263 263 264 264 264 264 265 265 266 266 266 266 267 267 268 269 271 273 275 276 276 276 277 278 276 279 281 281 282 282 276 275 277 278 278 279 280 280 282 282 282 283 284 285 285 286 286 285 285 283 282 283 283 283 281
260 260 262 261 260 260 260 260 261 261 261 261 261 260 260 260 259 260 261 262 262 262 262 262 262 262 262 262 262 263 263 263 263 264 264 264 265 265 265 266 266 266 266 266 267 269 270 271 273 275 276 276 277 276 278 277 279 280 280 281 281 280 281 280 278 278 278 279 279 280 281 283 284 285 285 286 286 285 285 283 284 284 284 283 282
260 261 260 259 259 259 259 260 260 261 261 261 260 259 259 259 259 261 262 262 262 262 261 261 261 261 261 262 262 262 263 263 263 264 264 264 264 264 265 265 265 265 265 266 267 268 269 270 271 273 275 272 272 274 276 277 277 278 280 280 281 280 280 279 278 277 277 278 278 278 278 282 283 284 284 284 284 284 283 284 284 284 283 282 279
260 260 259 259 258 258 258 259 260 260 261 261 261 259 259 259 260 261 261 261 261 261 260 260 260 260 261 261 262 262 262 263 263 264 263 263 264 264 264 265 265 265 265 265 266 268 268 269 270 272 273 273 271 272 272 274 277 278 279 280 280 280 279 280 278 278 277 276 279 280 281 282 282 283 284 283 283 283 284 283 283 283 282 280 276
260 258 258 258 258 258 258 258 259 260 260 260 260 260 258 259 261 261 261 261 260 260 259 259 259 260 260 261 260 260 261 263 263 264 264 264 264 264 264 264 265 265 266 266 267 268 268 269 270 272 273 274 274 273 273 273 276 277 277 278 279 279 279 279 280 279 280 280 281 281 281 281 281 281 281 280 279 280 282 282 282 282 279 276 275
257 258 258 257 257 257 257 258 257 259 259 260 260 260 260 260 260 261 261 261 260 259 259 259 259 259 260 260 260 261 262 262 263 263 264 264 264 264 264 264 265 265 266 266 267 268 268 269 271 272 274 274 274 273 273 274 274 273 274 276 277 277 279 280 278 278 279 279 279 279 279 279 279 280 280 280 280 281 279 280 278 277 275 275 274
257 257 257 257 257 256 257 257 257 258 259 259 260 260 260 260 261 261 261 260 259 259 259 258 259 259 259 260 260 262 262 262 263 263 264 264 264 264 264 265 265 266 266 266 267 268 270 271 271 273 275 274 273 273 273 274 275 275 276 277 276 276 276 276 276 276 276 277 277 278 277 276 275 274 274 273 273 273 274 274 274 274 274 273 274
256 256 257 256 256 256 256 257 257 258 259 259 259 260 260 260 261 261 260 259 259 259 259 258 259 259 259 260 261 261 261 262 263 264 265 265 264 265 266 267 268 268 269 269 270 272 272 274 275 276 275 274 274 274 275 278 278 280 278 275 273 274 275 275 277 277 274 274 274 273 272 272 272 271 271 271 271 272 271 272 272 272 272 272 270
256 256 256 256 256 256 256 257 257 258 259 259 259 259 260 260 260 260 260 259 259 259 259 258 259 259 259 260 261 261 261 262 263 263 264 265 268 271 270 269 268 273 276 277 277 276 277 277 277 277 277 275 275 276 279 280 280 279 279 278 278 278 278 277 278 277 274 271 271 270 270 270 270 270 270 270 270 270 270 270 271 272 270 269 267
256 255 255 255 256 256 256 256 257 258 258 258 258 259 259 260 260 260 260 259 259 259 259 259 259 259 260 261 261 261 262 262 263 264 264 264 265 267 271 273 274 275 276 277 278 279 279 280 279 277 278 280 280 280 280 280 280 280 280 280 279 279 279 278 277 273 271 270 269 269 269 269 269 269 268 268 269 269 268 268 267 267 267 267 266
Wind_Speed
3 3 4 6 6 5 6 6 9 8 8 5 4 4 6 8 8 9 7 6 6 7 6 6 7 7 6 7 7 5 5 5 5 6 7 7 7 7 6 6 5 4 4 4 4 4 4 3 3 4 5 6 7 6 5 3 5 6 6 5 6 9 9 7 10 10 11 4 2 3 3 3 4 5 8 8 8 8 7 7 6 6 7 7 7
4 6 7 6 5 7 8 9 10 12 10 6 6 7 8 8 8 10 9 7 6 6 6 6 5 6 7 7 7 7 7 6 6 6 7 7 8 7 7 6 6 6 5 4 4 4 4 4 3 3 3 4 5 6 6 5 3 5 7 7 4 6 7 6 6 9 7 13 11 6 3 1 3 5 6 8 9 8 8 7 7 8 8 9 7
6 6 6 7 6 9 9 10 10 8 7 5 6 7 8 7 7 7 7 6 6 6 6 6 6 7 7 7 7 7 5 6 6 6 7 7 7 7 8 8 7 7 6 6 6 5 5 4 4 5 3 3 3 6 7 6 4 3 5 7 7 4 4 3 5 10 12 13 11 9 8 7 6 4 6 8 9 8 7 8 9 10 12 10 8
10 10 11 10 10 10 11 12 12 9 7 8 10 12 11 9 7 8 6 5 6 7 7 6 7 8 7 7 7 6 6 6 6 6 6 7 8 8 6 7 8 8 8 6 6 6 5 6 5 4 5 3 3 4 5 7 6 4 4 5 6 7 4 3 4 9 6 10 7 12 11 12 9 12 13 11 8 7 10 12 10 11 10 8 7
10 11 12 12 13 13 13 13 11 10 10 11 11 11 9 9 8 7 5 5 6 7 8 7 8 7 7 8 6 6 4 4 4 5 6 6 6 5 7 6 7 9 9 8 7 8 7 6 5 6 5 4 4 4 5 6 6 5 4 5 4 5 5 4 3 5 11 7 6 7 4 4 12 12 12 2 6 8 11 11 10 11 10 11 10
8 10 11 11 12 13 13 12 9 10 12 11 10 10 10 10 8 5 5 6 7 7 8 7 7 7 7 7 8 7 7 7 7 8 9 9 9 7 6 7 8 8 9 9 8 8 8 7 6 6 6 6 5 6 5 4 4 5 5 5 6 4 5 4 5 5 8 12 11 5 3 5 10 6 10 10 3 6 6 8 10 11 10 10 9
8 9 11 13 13 14 12 10 11 13 13 12 10 9 11 10 5 5 7 7 7 7 8 7 7 6 6 6 6 6 8 8 7 7 8 8 7 7 7 7 6 8 9 9 8 8 8 7 7 7 7 7 6 5 5 6 6 6 5 4 5 5 4 7 7 6 4 9 11 11 12 3 4 8 10 6 5 3 6 9 10 9 9 10 11
10 12 13 12 11 11 13 13 14 16 15 13 10 8 10 8 4 7 8 9 8 7 7 7 6 6 6 6 6 7 7 9 10 9 9 8 9 9 8 7 7 6 8 9 8 8 8 8 8 8 8 7 6 6 7 6 4 4 4 6 5 4 6 7 7 6 7 6 9 13 13 9 3 9 6 12 8 9 7 4 4 10 9 11 11
11 12 13 11 11 13 14 15 16 16 15 13 10 10 8 4 7 9 10 9 9 8 8 6 6 5 4 5 6 5 6 6 7 7 8 8 9 9 8 8 8 7 7 8 9 8 9 9 9 9 8 7 6 7 7 6 6 5 5 5 6 6 6 7 7 7 6 9 7 10 11 12 6 5 5 4 5 6 7 13 11 5 5 9 10
11 12 11 11 12 13 14 14 15 15 14 13 12 11 7 6 10 11 10 9 9 9 9 8 6 4 4 5 6 7 6 6 5 7 7 7 8 10 9 9 8 8 7 7 8 9 9 9 9 8 8 8 8 7 7 6 5 6 7 7 7 7 6 7 8 8 7 7 8 7 9 10 10 6 5 5 5 8 8 9 10 12 12 13 11
12 11 10 11 10 12 14 16 16 16 14 15 14 12 8 9 12 11 11 11 11 10 11 10 6 4 6 5 5 6 6 5 5 6 6 6 9 10 9 8 8 9 9 8 9 10 9 8 8 8 8 8 9 7 7 7 6 6 6 6 7 8 7 8 9 9 8 8 9 8 9 10 12 12 11 7 6 3 2 4 7 11 16 13 11
12 12 11 12 14 16 16 17 17 17 17 19 18 16 14 15 15 16 16 16 14 11 11 12 9 7 7 6 5 5 5 4 5 6 5 6 8 9 9 9 9 8 8 8 8 8 8 8 9 9 9 8 8 8 8 6 6 5 5 5 6 7 7 7 7 8 9 8 9 8 9 9 10 11 10 9 9 9 8 6 7 6 6 6 2
11 13 16 16 15 15 15 14 15 15 18 19 19 17 15 15 16 16 17 17 16 11 11 14 13 12 8 7 6 6 5 4 5 5 4 4 5 8 10 9 8 9 9 11 11 11 10 10 9 9 9 8 9 8 7 8 7 6 6 7 7 7 8 8 8 9 9 9 9 8 8 10 10 10 11 10 8 8 7 7 4 9 8 8 2
14 14 14 13 13 14 12 12 13 15 18 19 18 18 17 17 18 18 18 16 14 12 14 15 16 15 10 9 7 6 5 5 5 5 5 4 5 6 7 8 8 9 10 11 12 14 13 12 11 11 10 10 11 11 10 10 9 7 7 7 7 8 7 8 9 9 9 9 8 8 8 9 10 10 10 10 8 9 8 11 5 3 2 3 2
12 12 12 12 14 14 10 11 13 15 17 17 15 16 17 17 17 20 19 16 17 18 15 17 16 15 13 11 9 6 5 5 5 5 5 5 5 6 6 6 7 8 9 10 13 14 16 15 13 12 11 10 10 11 11 10 8 7 6 8 8 6 7 7 7 9 9 9 10 9 9 8 9 10 9 9 5 10 10 10 8 7 2 2 4
12 12 12 13 14 12 7 11 13 14 15 15 15 14 14 15 16 17 17 17 16 17 17 17 16 15 16 14 8 6 5 5 5 5 6 6 6 6 6 6 7 8 10 11 13 13 15 17 15 12 11 10 10 10 10 8 7 8 7 7 8 6 7 7 7 8 9 10 10 9 9 9 9 9 10 10 6 5 7 7 8 10 11 7 3
13 12 12 15 15 8 9 12 13 14 13 13 14 13 13 15 16 17 18 16 16 17 17 16 17 17 15 11 7 6 7 8 7 8 8 7 5 4 5 7 9 10 11 12 13 14 14 15 15 14 12 11 11 10 10 9 9 8 8 8 8 7 6 7 7 7 7 8 8 10 9 8 8 8 9 9 8 5 4 5 8 12 11 12 7
11 11 12 13 12 6 11 12 13 13 13 13 14 12 12 13 14 17 18 20 19 17 16 14 14 14 11 9 7 7 8 9 10 10 7 4 5 6 7 9 11 10 11 11 11 12 12 14 14 14 12 11 11 10 10 11 9 8 9 9 9 8 7 7 7 7 8 7 7 8 7 8 7 8 8 9 9 8 6 6 6 5 8 11 9
10 10 11 13 9 8 13 14 13 12 12 12 12 11 11 12 13 15 18 20 19 14 14 13 14 13 10 10 10 11 11 11 11 6 4 8 10 10 11 12 12 12 12 11 12 12 13 13 13 12 11 12 11 11 11 10 9 9 9 8 8 7 7 8 7 7 7 7 6 8 7 8 7 8 8 8 8 8 8 7 6 5 5 8 10
10 10 11 12 9 11 14 13 13 13 12 11 11 10 13 13 15 16 18 17 17 17 15 14 14 14 15 15 16 14 13 12 7 6 9 9 11 11 13 13 13 12 11 11 12 13 13 13 12 12 12 11 11 10 10 10 9 9 9 8 8 7 8 9 8 6 6 6 7 7 7 7 7 6 7 7 8 9 9 9 8 8 7 8 7
10 11 12 11 10 12 13 12 11 12 11 10 9 10 11 12 14 16 20 19 17 15 14 14 13 14 15 18 18 18 14 7 9 11 11 10 11 13 12 12 11 11 11 11 12 12 12 12 13 13 12 12 11 10 9 9 9 9 8 8 8 8 9 9 8 7 6 6 6 7 7 7 6 7 6 6 7 7 8 9 9 8 9 8 9
12 11 11 10 11 13 12 11 10 11 10 10 10 10 12 13 14 15 14 16 15 14 15 15 12 15 18 17 14 11 12 14 14 11 11 11 12 12 12 12 11 11 11 12 14 13 12 11 12 12 12 12 11 10 9 8 8 8 8 7 8 8 8 9 8 8 7 6 6 7 7 6 6 7 7 7 7 7 7 7 8 9 9 9 9
13 13 11 10 11 12 12 12 13 11 10 10 10 11 12 13 15 17 21 22 18 16 14 15 17 15 14 13 13 14 15 14 11 10 11 12 12 12 11 11 11 10 11 10 13 10 9 10 11 11 11 12 11 10 8 8 9 9 9 8 8 8 9 9 9 9 8 7 7 8 8 7 5 7 7 6 7 7 7 8 9 8 9 9 10
13 11 10 9 11 11 11 11 12 10 9 10 10 10 11 12 15 20 21 19 17 17 18 17 13 14 15 15 16 14 11 10 12 11 15 16 14 11 9 10 11 11 12 10 9 9 9 9 10 10 10 10 10 8 8 7 9 10 8 8 8 9 9 9 9 9 9 8 8 8 7 7 6 7 7 6 6 6 7 7 8 7 8 9 9
13 13 12 11 12 12 11 12 12 11 10 9 11 11 13 15 15 20 21 19 18 18 17 13 14 16 17 16 13 11 12 13 13 13 15 16 13 13 12 13 12 12 12 12 11 9 9 9 9 8 9 9 9 8 7 8 8 8 7 7 7 7 9 10 9 9 9 9 9 9 8 7 7 7 6 6 6 7 6 7 7 7 7 7 6
14 13 13 14 13 12 12 12 11 11 10 9 11 12 14 15 16 17 17 19 18 17 14 14 14 16 14 12 12 13 13 13 13 13 16 15 14 13 13 12 11 10 11 10 12 11 8 8 8 10 10 11 10 8 7 8 7 6 6 6 7 7 7 8 9 9 9 8 9 9 8 7 8 8 7 6 6 8 7 7 7 7 7 6 7
15 12 13 14 15 14 12 13 11 8 9 10 12 14 12 17 20 19 19 16 17 16 15 15 15 13 12 13 14 14 13 12 12 13 13 14 14 13 13 12 8 10 11 11 10 11 11 11 11 10 10 10 11 10 9 9 8 6 6 7 7 8 8 8 8 9 9 9 10 9 8 8 9 8 7 6 6 6 7 7 8 7 6 6 6
13 13 14 16 16 14 15 13 11 7 10 10 9 11 17 16 18 20 16 16 15 16 16 16 15 15 14 15 15 15 14 13 13 13 14 13 13 13 11 9 10 11 12 12 12 12 11 10 11 11 11 11 10 10 10 9 8 8 7 7 8 8 8 8 8 8 9 10 10 10 9 9 10 9 8 7 6 6 5 6 6 6 6 7 7
15 15 16 16 17 16 16 13 11 8 11 10 9 10 11 12 17 16 17 17 16 16 17 16 15 14 14 15 14 12 11 12 13 14 14 14 14 11 10 10 10 11 10 12 13 13 13 12 11 11 12 10 9 9 9 8 8 7 6 7 8 9 9 9 9 9 9 9 9 9 9 9 9 10 12 10 9 7 6 6 5 5 6 7 6
16 17 16 14 15 15 15 12 8 9 10 10 11 13 15 18 16 16 17 15 15 16 16 15 15 15 14 14 13 12 11 10 11 13 14 14 14 13 10 9 10 11 11 11 11 11 10 9 10 11 10 10 10 9 12 19 16 10 7 7 7 8 8 8 8 8 9 9 10 9 9 12 14 16 16 15 14 12 11 7 5 6 7 6 7
19 17 16 16 15 15 14 9 8 10 12 13 12 12 13 14 16 17 15 15 15 15 14 14 15 14 14 13 11 12 12 12 11 11 12 13 14 10 9 9 11 11 11 11 10 11 10 10 10 10 11 11 11 11 19 20 20 21 12 7 7 7 7 7 8 8 9 9 8 8 8 12 13 14 14 16 14 14 14 13 10 9 8 8 8
20 17 15 16 18 18 13 10 10 13 14 14 14 14 13 18 18 15 14 15 14 14 14 14 12 13 14 13 13 14 13 13 12 13 13 13 12 10 10 11 11 10 10 9 11 11 11 11 10 10 11 11 11 15 21 21 22 21 17 9 6 6 7 7 8 9 9 9 9 9 8 8 9 11 10 11 14 16 16 15 14 12 12 14 14
22 20 19 19 18 16 12 11 12 13 15 15 13 14 14 15 14 15 14 14 14 14 13 12 13 14 14 13 13 14 14 14 13 13 13 13 13 12 12 11 11 11 10 10 11 11 11 10 10 11 11 11 10 17 21 22 22 22 20 16 8 8 8 8 9 9 10 10 9 9 8 8 9 15 12 10 10 11 14 17 16 16 16 15 16
19 19 20 19 17 14 10 13 14 14 15 13 10 11 14 15 14 14 14 14 14 14 13 14 14 14 14 14 14 14 14 13 13 13 13 13 13 14 13 13 11 11 11 12 12 13 12 12 11 12 12 11 12 17 22 23 22 22 21 18 10 10 9 9 10 10 9 10 10 9 9 9 8 10 10 10 10 9 9 10 11 10 10 13 16
20 21 21 20 18 16 14 15 15 16 16 12 9 12 15 15 13 14 14 14 13 14 14 14 14 14 14 14 14 13 14 14 14 13 13 14 14 13 14 12 11 12 12 12 12 12 11 11 12 12 12 12 12 19 21 22 21 22 22 18 11 10 10 10 10 10 11 11 11 10 10 9 9 9 9 11 10 10 9 9 10 10 10 9 9
20 20 21 21 19 16 17 17 16 17 15 10 13 14 14 17 15 13 12 12 14 14 14 14 15 14 14 14 14 14 14 14 14 14 13 14 13 13 13 12 12 11 10 10 11 11 13 13 12 11 10 12 13 20 21 21 22 22 23 14 11 11 11 10 10 10 10 10 10 9 9 9 9 9 13 19 15 10 11 12 11 11 10 10 11
21 20 20 18 15 16 18 18 17 17 12 12 15 15 17 15 14 13 15 15 15 14 15 16 15 15 14 14 14 14 13 14 14 14 14 12 13 14 13 11 11 11 11 11 11 11 11 11 12 11 11 11 12 16 18 18 18 21 18 10 9 8 8 9 9 9 10 9 9 10 10 10 10 10 15 19 20 17 10 12 11 11 11 10 10
21 21 16 15 16 17 17 16 18 15 13 16 16 17 15 14 14 15 15 15 14 15 15 15 15 15 15 14 13 14 14 13 13 13 13 13 12 11 11 10 11 12 11 11 11 11 11 11 12 12 10 9 10 12 15 13 13 12 8 5 6 7 8 8 8 8 8 8 10 16 14 11 11 11 18 20 22 18 12 12 12 12 13 12 11
19 16 19 18 17 19 16 16 17 13 18 18 19 17 14 14 15 15 14 14 15 15 15 15 15 15 14 13 13 13 12 12 12 13 12 13 12 12 12 10 10 10 11 11 11 11 11 10 10 10 14 12 9 10 14 14 13 12 5 1 2 4 6 6 7 7 7 8 8 12 18 15 13 14 18 20 23 19 12 12 12 11 13 15 12
19 18 18 20 19 15 17 18 15 18 18 18 16 15 15 15 15 14 15 15 16 16 16 15 15 14 13 13 12 12 12 12 13 13 11 11 11 11 11 11 10 9 10 10 9 8 10 11 9 7 5 8 9 8 8 11 8 8 7 2 1 2 4 5 7 7 8 8 9 9 12 20 20 19 18 21 23 24 14 12 10 11 12 14 9
21 21 22 16 16 12 17 16 15 18 17 16 15 15 15 15 15 14 16 16 16 15 15 14 14 14 14 14 12 11 13 13 11 11 11 10 9 11 11 10 10 9 9 8 10 10 9 9 5 4 5 6 6 7 8 12 11 10 9 6 1 3 4 4 5 6 7 8 8 9 8 14 20 20 20 22 23 24 22 13 12 12 13 12 10
18 21 19 17 15 17 21 19 18 18 18 16 16 16 15 15 15 16 17 16 16 15 14 15 16 15 14 13 13 12 12 11 11 10 11 10 10 10 10 9 8 9 10 10 10 9 8 9 9 8 7 8 7 9 6 8 11 11 11 11 4 4 5 5 6 6 7 7 7 7 8 12 19 21 23 24 25 24 25 13 13 16 17 18 14
23 20 20 21 19 19 19 19 17 17 16 16 17 17 15 15 16 18 17 15 15 15 16 16 15 14 13 13 12 13 12 10 10 10 10 10 8 8 9 8 9 9 10 10 10 9 9 9 9 8 7 6 6 6 11 9 13 15 14 13 13 8 11 7 6 6 6 6 5 5 6 14 21 24 26 27 27 26 22 16 19 21 22 21 16
20 19 20 21 18 18 18 18 17 17 17 15 16 16 16 16 18 16 14 15 15 16 15 14 13 13 13 12 12 12 12 11 11 11 10 10 10 9 8 8 8 7 8 8 8 8 8 8 9 9 7 5 4 5 8 13 11 14 13 13 13 13 13 7 5 6 5 5 5 5 5 9 14 18 18 17 16 16 10 14 16 16 16 18 9
23 20 22 18 19 19 19 18 18 19 17 15 15 15 18 18 16 14 14 15 15 15 14 13 13 13 13 12 12 12 11 10 10 10 10 9 10 9 9 7 7 7 7 7 7 7 7 8 9 10 9 7 6 5 5 8 12 12 12 12 12 13 12 14 8 6 6 5 8 11 11 11 11 13 15 15 13 14 16 15 14 13 17 8 8
19 20 22 20 19 18 19 19 19 19 17 15 16 15 17 16 15 14 14 14 14 15 14 14 13 12 13 12 12 11 10 10 11 8 8 7 8 8 8 8 7 7 6 7 7 7 7 8 9 9 8 7 7 5 5 5 5 6 7 10 12 12 13 12 11 7 10 13 13 14 13 12 12 10 7 3 3 4 9 11 13 16 7 8 9
21 21 20 18 17 18 20 21 20 19 17 16 15 13 13 14 14 15 15 14 14 14 14 13 13 13 12 11 11 10 11 10 9 9 7 7 7 7 8 8 7 7 8 7 7 8 7 7 8 9 8 6 5 5 5 5 4 4 4 5 6 6 7 6 3 2 5 5 5 6 4 6 5 7 7 7 7 7 5 6 4 6 9 9 8
19 20 20 18 18 18 20 20 18 18 17 16 14 13 13 14 14 14 14 15 15 14 14 13 14 11 10 10 10 12 12 11 10 8 9 9 9 8 8 8 8 8 8 8 9 8 8 9 11 9 7 5 5 5 4 5 5 4 4 2 4 3 4 4 4 3 4 4 4 5 4 4 5 6 6 6 6 6 6 7 7 7 7 7 9
20 18 19 18 18 18 20 20 18 15 14 13 13 13 13 15 14 14 14 15 15 16 14 13 12 11 11 10 10 9 9 10 11 10 8 7 8 8 8 9 8 6 6 7 8 10 10 9 7 8 6 4 4 5 5 5 5 7 4 4 2 2 3 4 5 8 6 6 6 6 5 5 5 6 7 7 7 7 7 7 9 8 8 8 8
18 17 19 20 19 19 18 18 15 14 13 14 13 13 14 14 14 14 15 16 16 14 13 12 11 11 11 11 10 10 9 9 9 9 11 11 9 14 11 8 9 15 20 19 15 9 10 9 9 7 4 4 5 4 8 10 8 7 8 7 6 7 7 7 10 12 7 6 6 6 5 5 5 6 7 7 7 8 8 7 6 8 8 7 7
19 19 20 20 19 19 17 16 15 14 14 14 14 14 13 14 15 15 16 16 16 13 12 11 11 10 12 12 10 10 10 9 8 9 8 9 12 9 9 13 14 16 17 18 17 19 20 20 15 8 4 9 9 10 10 8 7 8 8 9 10 10 11 11 11 8 7 5 6 7 5 6 6 6 7 6 7 8 8 8 7 6 6 7 8
Wind_Direction
311 300 349 14 14 6 5 359 350 346 341 327 331 336 338 331 332 330 325 327 336 335 333 326 322 316 311 305 294 285 285 289 290 283 283 276 267 265 264 267 281 282 275 276 280 284 271 266 284 296 298 299 296 289 279 289 302 303 299 291 267 240 228 208 201 183 174 155 97 164 179 188 204 187 198 194 196 196 187 187 185 177 200 200 206
356 359 354 7 359 357 357 352 344 343 338 340 338 337 335 330 329 325 329 333 333 333 321 321 316 313 304 295 290 295 299 299 293 290 281 276 275 273 269 274 278 274 273 270 264 259 268 263 256 267 282 284 281 282 285 277 283 294 296 299 294 256 241 211 204 158 195 189 184 194 186 202 207 211 214 214 202 191 187 183 180 192 196 206 205
17 16 8 7 350 348 351 344 339 335 328 325 322 329 328 323 316 314 312 320 321 320 323 315 313 313 311 305 308 297 273 268 274 278 285 286 283 280 278 275 275 275 266 263 265 259 249 248 250 242 247 264 278 282 282 281 272 281 288 278 291 300 261 216 186 201 191 203 195 163 197 202 220 224 239 231 208 194 177 191 193 197 200 198 199
15 11 3 356 352 344 344 341 339 340 339 335 332 329 324 321 313 312 313 314 313 309 311 303 300 301 299 291 290 282 281 292 300 299 293 288 286 281 287 285 277 273 271 263 258 261 258 251 247 239 251 230 238 262 270 277 277 274 276 271 270 280 280 288 209 213 232 176 161 199 194 199 214 228 216 217 193 189 191 202 195 201 198 195 193
10 3 356 352 349 347 342 339 342 349 340 329 319 315 313 305 301 304 297 300 299 305 306 304 309 312 310 307 302 302 297 293 304 294 280 277 277 284 280 281 285 284 281 272 262 261 263 261 250 249 243 233 224 235 245 248 261 251 253 270 254 236 261 252 272 239 232 241 192 146 65 186 216 223 196 234 166 200 213 204 200 201 195 197 198
10 1 349 346 342 341 340 342 349 343 333 326 311 302 298 293 294 299 312 309 307 305 304 304 304 304 311 313 315 318 315 317 315 312 313 310 302 298 303 296 291 288 286 281 271 267 264 259 257 249 249 251 236 231 231 236 239 244 234 231 253 234 239 240 243 242 242 239 247 269 232 210 206 186 133 219 130 226 203 204 211 207 201 198 200
1 356 345 343 344 343 342 346 343 336 327 319 309 301 299 294 306 322 314 305 298 297 301 303 300 301 290 288 295 304 306 306 302 301 297 293 290 296 292 293 288 288 289 287 282 272 265 259 257 254 249 244 246 239 235 230 231 227 224 216 224 234 217 246 236 234 242 247 247 258 273 278 304 156 198 117 182 222 200 196 214 209 203 203 205
354 347 342 343 345 347 343 340 336 329 322 315 304 302 302 302 305 306 300 295 287 285 289 294 301 299 301 299 299 299 301 300 307 307 302 298 296 290 291 288 284 282 286 291 290 282 274 268 261 261 256 243 236 237 241 231 220 221 214 209 217 210 214 236 250 226 212 232 222 233 246 265 297 223 222 195 169 177 204 232 236 206 208 215 213
351 345 342 346 349 346 341 337 331 326 323 316 309 310 301 279 298 301 298 290 286 283 286 288 289 282 274 290 295 288 291 294 298 297 297 297 294 296 298 295 293 287 283 287 292 289 285 278 270 262 257 248 232 236 240 232 214 212 208 208 208 214 208 221 240 246 222 230 224 229 234 239 240 247 266 257 177 161 203 190 196 179 206 224 218
348 345 344 347 345 344 338 332 330 329 326 321 315 313 291 302 310 306 297 295 290 288 292 283 273 265 272 266 269 288 291 295 302 306 310 311 308 313 313 310 305 299 296 295 297 298 293 287 279 265 256 256 253 236 233 231 215 211 207 205 203 214 210 209 224 241 238 236 226 226 228 227 232 243 254 238 250 218 206 184 188 173 198 223 205
345 341 341 338 337 338 339 339 337 334 333 329 323 318 306 315 310 307 304 306 303 299 294 278 266 257 256 251 261 277 287 290 302 305 310 319 319 316 316 318 320 313 310 308 304 302 301 297 294 285 272 265 259 251 240 228 226 220 219 207 200 203 211 213 220 231 240 239 234 222 228 223 219 217 215 214 212 212 209 152 179 189 201 212 198
338 341 338 337 344 348 346 343 341 339 342 345 345 340 334 329 327 324 320 313 307 302 293 290 286 276 254 246 249 253 265 277 286 293 306 314 317 315 318 315 311 307 307 303 301 299 295 292 287 287 284 275 260 248 245 238 234 226 217 206 211 208 207 209 215 226 228 238 242 230 229 230 234 229 225 207 207 219 209 195 174 174 235 241 138
341 345 350 349 347 343 340 339 341 352 351 343 337 335 332 329 326 323 321 320 312 309 306 302 301 285 265 251 239 239 239 254 265 276 290 299 307 311 309 306 313 317 321 317 313 307 300 298 295 288 284 275 264 256 248 247 241 231 224 219 215 210 201 202 211 217 216 226 239 239 232 230 233 236 235 226 207 218 209 211 181 173 186 202 184
356 351 342 338 337 333 332 340 350 350 344 339 337 336 335 331 330 327 324 327 325 319 314 314 307 296 277 266 255 238 240 245 253 265 275 282 293 293 297 300 306 309 311 310 312 311 303 293 287 282 275 273 270 262 253 248 244 233 228 228 224 220 206 200 210 215 217 222 228 242 238 234 234 236 239 233 211 198 206 212 169 186 162 160 117
349 342 335 333 330 325 330 347 346 342 339 335 334 333 333 331 331 329 328 331 328 322 317 314 309 299 284 266 251 243 239 245 250 257 268 280 284 286 283 291 294 298 300 302 305 305 300 293 284 278 276 273 268 264 256 245 238 237 234 230 232 220 211 204 208 212 216 213 218 224 239 237 235 234 234 243 205 208 205 207 174 156 147 126 164
343 336 333 330 324 321 342 345 338 335 332 329 328 330 330 329 327 325 325 325 323 321 318 314 311 306 293 274 256 259 265 271 269 269 273 274 279 275 280 284 290 295 295 296 294 293 292 289 282 276 275 272 265 258 255 245 234 231 237 233 236 226 220 213 215 216 220 216 216 217 225 233 232 229 225 229 226 219 209 185 184 191 195 207 168
341 336 333 327 320 325 340 335 332 328 325 323 324 324 325 326 326 325 324 321 319 316 314 315 314 315 306 286 277 285 290 287 289 293 290 281 275 282 295 298 298 295 291 290 288 285 282 279 279 278 275 271 269 263 256 249 241 229 229 231 235 233 225 227 221 218 220 218 215 214 217 225 228 227 225 220 214 205 200 191 188 199 200 210 189
332 326 325 319 311 317 327 325 321 319 317 317 317 321 323 323 324 328 325 318 314 309 309 312 317 317 305 294 294 298 300 301 300 295 290 304 316 312 304 296 290 286 285 284 277 274 272 271 271 272 272 271 265 261 255 250 241 231 225 224 228 227 224 229 224 217 221 215 217 216 212 223 221 217 218 213 206 195 184 187 195 197 193 207 205
324 320 316 313 304 309 320 318 314 311 310 308 310 314 318 322 329 328 320 314 310 307 307 311 315 315 309 297 298 301 298 299 296 296 325 321 311 306 301 295 292 289 286 279 277 276 274 271 269 269 269 267 264 259 255 249 236 233 227 225 226 221 222 229 227 217 218 214 215 221 213 220 217 217 215 213 206 192 188 184 187 185 198 206 210
315 312 309 303 299 310 315 314 313 312 311 308 310 314 321 329 328 322 316 311 308 307 310 312 314 314 313 311 305 302 303 299 304 322 314 310 306 303 300 297 291 285 278 276 274 273 271 269 266 265 264 263 263 257 249 244 236 231 228 221 220 210 220 229 233 219 216 207 213 221 218 216 214 212 215 212 206 201 191 189 182 184 195 199 192
309 308 306 300 301 309 309 308 305 303 304 308 312 319 325 327 323 322 316 308 302 307 310 311 313 311 314 312 305 300 303 322 318 311 308 305 304 299 292 287 285 279 277 274 273 271 272 271 270 267 264 262 260 258 249 241 235 232 225 222 219 208 214 221 223 223 217 210 214 220 221 217 209 211 211 206 205 203 199 196 187 183 191 190 192
309 303 300 298 301 305 305 303 303 303 307 314 319 323 325 323 323 320 312 305 305 311 310 307 314 312 305 301 311 330 326 312 309 308 308 307 300 293 289 283 279 278 276 277 277 275 269 273 273 267 263 261 259 257 254 240 232 229 228 219 222 217 219 223 214 218 212 206 208 218 221 215 204 212 209 207 197 194 200 197 194 190 191 193 199
309 305 297 295 300 302 303 304 305 307 312 318 323 325 324 324 327 328 320 314 314 314 315 319 310 307 316 319 316 315 315 313 315 318 311 303 293 287 283 279 280 282 277 272 270 269 285 295 295 291 273 260 256 254 247 232 228 224 221 219 217 217 220 222 219 220 215 202 203 210 215 207 194 200 212 211 201 197 193 197 198 195 195 193 194
307 299 292 292 300 301 302 307 311 313 317 321 325 326 324 327 331 327 317 316 322 321 314 307 312 316 313 315 314 313 328 340 329 324 315 304 291 289 295 300 302 303 301 292 288 290 286 285 286 287 294 286 263 244 247 240 236 231 222 223 218 216 218 221 221 219 215 205 205 208 210 197 189 195 203 203 206 197 192 195 202 202 201 197 192
307 304 301 301 304 307 308 310 313 317 319 327 332 330 329 329 331 327 325 322 320 316 314 320 323 318 314 311 323 339 333 323 318 313 308 304 314 318 309 301 297 295 297 297 290 289 290 281 277 285 293 298 302 293 272 255 236 228 225 224 222 220 221 223 222 219 212 207 209 210 210 193 189 197 199 195 195 197 194 195 198 201 202 201 197
308 305 307 310 312 310 312 311 315 321 329 336 332 331 332 329 328 327 319 320 317 314 310 313 313 307 315 329 329 323 318 314 313 311 305 303 303 301 301 298 291 292 302 300 292 282 284 307 326 325 320 315 307 295 286 276 260 242 233 231 230 226 225 220 218 218 217 210 212 214 210 191 194 199 202 192 190 193 195 195 198 199 197 195 194
310 306 307 312 316 315 314 314 316 330 345 336 331 330 335 336 327 324 323 318 319 315 316 317 316 324 328 325 326 322 315 311 310 307 301 298 296 296 293 288 308 318 313 310 320 332 327 319 313 310 305 303 301 296 286 277 266 254 239 233 231 234 233 226 222 220 217 214 214 214 206 197 200 199 198 188 188 192 194 200 200 195 190 190 193
308 310 315 317 319 320 320 319 330 347 335 328 333 332 330 330 332 328 321 321 317 317 317 315 315 313 317 323 320 315 313 310 305 299 295 291 290 288 292 317 324 318 315 312 310 307 308 305 300 296 294 292 288 287 282 273 264 253 243 236 233 232 232 230 226 222 220 219 217 214 207 202 200 199 192 187 182 193 189 203 204 191 187 188 197
312 315 317 320 324 325 321 327 342 335 329 322 319 327 331 330 330 324 323 321 320 319 318 317 319 322 322 318 311 303 303 301 302 306 309 308 304 302 313 318 318 312 309 307 304 301 298 295 291 287 286 284 279 273 273 269 264 255 238 237 237 232 230 230 228 225 221 221 221 216 213 209 201 195 190 183 179 178 178 197 201 188 196 192 198
313 319 320 323 324 323 324 334 341 331 327 328 326 333 339 337 332 328 324 323 325 320 319 320 320 318 311 307 303 299 297 302 309 315 313 310 308 310 313 314 309 306 301 297 292 286 278 275 280 282 278 276 272 269 267 268 265 257 238 234 230 229 227 226 226 227 227 221 219 216 214 206 206 204 200 197 195 196 201 198 184 182 196 198 201
321 319 325 324 324 326 333 336 332 335 335 336 336 333 335 336 331 327 325 327 323 320 319 320 317 310 308 306 304 309 313 313 311 307 305 303 306 309 309 304 300 296 292 289 283 284 281 279 276 275 275 272 267 267 268 267 265 262 258 237 227 226 219 223 226 226 229 225 221 218 215 215 213 212 208 203 198 201 210 217 213 200 202 199 199
322 324 326 330 332 333 337 343 339 338 339 338 339 340 337 333 331 327 327 324 323 322 319 315 309 307 309 312 316 317 314 312 309 306 305 306 308 310 305 299 296 291 289 286 283 279 278 274 270 266 262 263 263 261 261 259 258 257 256 258 244 226 221 222 224 227 230 228 222 217 215 210 209 208 207 208 203 201 205 209 213 220 217 217 219
330 332 334 336 337 336 342 346 342 342 340 340 341 340 338 331 325 325 323 324 321 319 317 313 313 314 317 321 319 316 313 310 308 308 308 309 308 303 300 297 292 288 281 279 280 282 282 280 274 272 268 262 259 260 258 254 252 252 254 253 252 243 232 227 222 221 223 225 222 217 216 210 210 207 204 202 202 206 207 207 210 218 225 222 220
339 340 340 340 341 343 345 345 345 342 339 335 344 343 335 329 325 324 323 322 319 320 319 319 320 322 324 320 316 314 312 310 311 311 310 309 306 302 299 298 294 293 293 291 288 286 286 282 277 275 271 261 256 257 255 252 250 249 249 249 243 242 238 234 228 221 220 222 219 214 210 209 205 203 203 199 195 194 200 208 213 215 217 225 225
346 345 346 346 344 339 341 347 346 342 335 339 345 338 334 332 327 323 322 322 322 322 323 324 325 324 320 319 317 316 315 315 313 311 309 306 303 301 300 298 294 294 293 290 288 287 282 278 274 270 272 269 259 257 253 250 249 247 246 246 240 238 238 236 230 221 220 219 218 216 211 207 201 197 196 198 193 194 195 201 205 210 216 219 222
352 350 347 343 335 342 353 347 341 339 334 354 349 340 331 330 327 324 325 324 324 324 326 328 326 323 322 321 320 318 315 313 312 309 308 305 302 301 300 299 294 290 285 283 281 276 275 273 270 268 264 266 266 263 257 251 248 246 246 242 237 232 230 229 225 223 221 219 216 212 211 211 205 198 202 204 201 193 194 201 205 209 211 212 217
351 347 337 331 348 0 346 340 339 333 349 359 346 339 333 330 330 330 328 329 327 328 330 329 326 325 324 322 320 317 314 311 310 310 305 305 307 303 300 297 295 293 291 287 282 278 273 271 269 261 262 266 271 271 268 262 253 246 241 228 220 215 215 217 223 223 222 220 215 212 212 213 208 205 206 203 197 194 194 199 202 206 210 214 219
344 334 346 2 354 343 344 338 334 342 8 350 345 338 334 334 334 332 331 329 331 332 330 329 327 327 325 321 317 316 312 309 310 306 308 307 301 298 296 297 294 295 294 291 288 282 275 265 263 262 255 263 276 282 286 284 295 295 277 231 198 200 204 211 219 220 219 219 218 216 213 213 211 209 213 205 198 195 197 198 200 206 210 215 220
343 356 357 347 349 343 337 339 337 14 355 352 344 340 336 337 336 335 332 333 335 332 331 330 329 326 322 317 316 313 311 311 310 310 305 302 304 302 296 291 289 285 283 283 283 283 279 275 262 262 278 285 286 292 300 304 302 301 326 99 179 184 209 208 210 216 215 217 218 217 214 213 214 218 214 209 206 201 202 200 199 204 214 219 219
1 354 352 347 340 339 344 338 5 3 352 350 345 341 340 337 336 333 336 337 334 333 330 328 326 324 321 320 317 315 315 311 310 307 304 298 295 293 295 295 289 284 283 281 278 287 293 295 290 281 314 337 328 321 315 321 327 323 322 332 231 234 229 222 215 219 217 216 219 218 216 217 219 222 219 217 215 210 205 206 201 208 215 224 212
354 351 347 345 341 345 346 359 7 355 352 344 341 342 340 338 336 336 339 335 332 329 329 327 326 324 322 321 319 317 315 312 308 302 298 291 287 292 298 300 301 298 296 300 310 305 299 300 301 331 326 319 313 309 310 311 307 305 300 301 229 235 247 252 252 238 227 224 220 218 212 214 215 215 210 214 214 214 212 203 203 208 211 213 200
357 348 346 340 339 360 352 355 357 353 343 343 342 343 341 339 337 340 337 330 330 330 329 329 326 324 323 321 319 318 315 312 309 307 304 297 304 306 307 305 302 307 313 313 314 314 319 324 330 330 328 324 321 319 309 302 306 305 301 292 257 218 224 224 242 239 239 238 228 220 212 208 212 216 218 214 214 218 219 207 207 209 209 208 209
349 345 348 359 356 351 349 349 347 343 346 345 346 344 341 338 338 338 332 331 332 332 330 327 325 323 322 320 319 318 317 315 313 310 308 311 310 310 308 306 310 313 314 315 317 325 330 327 321 317 308 305 314 323 322 318 318 312 305 294 286 279 272 259 238 237 236 233 239 252 242 218 214 215 218 220 222 217 213 211 208 210 212 204 204
342 344 3 358 356 352 346 345 346 346 346 347 346 342 339 337 337 332 329 331 331 329 327 324 323 323 321 321 321 319 318 315 315 316 315 312 313 310 307 311 310 310 314 316 320 323 321 318 319 312 299 285 291 305 306 309 307 303 295 286 283 281 276 256 238 235 236 228 220 210 199 231 226 220 218 219 219 222 221 224 227 223 209 205 181
341 2 360 357 353 344 342 344 347 347 346 346 345 339 337 336 334 328 330 331 329 326 325 324 324 323 322 322 320 319 316 313 315 315 313 313 312 317 317 316 315 313 312 312 312 314 310 310 312 308 301 297 294 291 285 293 298 301 297 292 289 282 274 264 251 231 213 211 215 218 209 211 214 217 217 218 221 224 228 226 226 208 197 176 152
358 0 357 351 344 343 343 345 346 348 345 344 342 339 335 332 328 329 329 329 327 326 326 326 325 323 322 321 319 316 312 314 316 313 309 308 310 316 316 313 316 313 311 310 303 303 303 303 297 291 290 295 298 289 286 283 281 287 289 284 282 277 269 262 255 233 219 213 212 214 217 219 224 221 212 197 174 194 215 210 194 195 163 132 137
4 354 350 343 344 343 345 346 345 345 345 341 336 334 331 329 329 329 329 328 326 326 325 326 325 324 322 323 322 322 324 324 323 321 318 315 317 318 316 315 314 316 314 311 306 301 291 288 290 296 294 302 297 293 291 284 274 273 274 278 291 275 248 255 270 211 211 209 210 201 178 189 178 203 182 168 162 159 150 172 152 121 126 139 141
357 347 346 344 343 343 341 343 342 341 338 335 332 331 331 330 329 329 329 328 328 330 328 325 324 323 322 323 322 321 324 323 325 326 327 329 328 321 317 315 317 317 314 307 305 299 302 302 300 295 301 308 307 302 301 305 311 289 287 5 349 14 72 100 108 94 91 92 83 101 104 76 83 77 88 65 67 72 98 103 119 123 112 116 121
347 346 347 347 343 340 339 338 337 334 331 330 331 329 329 331 331 331 331 331 330 329 328 325 325 326 324 325 324 325 325 323 323 325 324 317 312 313 312 307 297 265 271 279 284 301 292 285 295 317 321 303 315 331 305 337 339 356 46 73 1 31 84 85 106 104 88 80 83 81 78 85 82 95 83 88 87 90 83 102 110 111 109 110 113
346 345 345 344 342 339 334 333 332 332 332 331 329 329 329 330 331 332 333 333 332 330 329 329 330 328 326 327 329 327 325 323 324 325 327 323 314 325 320 308 301 318 323 323 325 320 340 345 330 325 304 299 321 318 355 4 14 68 91 102 113 109 104 100 93 87 83 82 83 84 85 94 97 91 95 99 107 106 105 97 93 109 110 107 105
345 344 344 343 340 336 332 331 334 334 334 332 329 329 329 331 334 334 335 333 332 331 328 328 330 330 329 330 326 326 326 324 322 323 319 319 323 324 327 328 331 331 334 340 347 353 354 352 349 339 333 12 15 15 10 25 67 78 85 86 84 88 94 98 97 87 65 76 89 93 88 88 88 94 100 107 111 112 110 104 90 81 79 105 108